Löningen

Germany     52˚44′13″N   7˚45′24″E
temp.,
°C
wind,
m/s
gust,
m/s
humid.,
%
clouds,
%
prec.,
mm/h
press.,
hPa
HPBL,
m
3 december, thu
thu301:00+4˚s4892100 0.0 1008346
04:00+5˚ssw51092100 0.0 1005464
07:00+5˚ssw61090100 0.0 1002508
10:00+5˚ssw61087100 0.0 1000678
13:00+5˚s61187100 0.1 998616
16:00+5˚s51186100 0.4 995622
19:00+5˚sse71289100 0.9 993639
22:00+5˚sse81388100 0.3 991778
4 december, fri
fri401:00+4˚sse81484100 0.4 989777
04:00+4˚sse71581100 0.0 986834
07:00+5˚sse71477100 0.0 986735
10:00+6˚sse81478100 0.0 986709
13:00+8˚sse61676100 0.0 9871340
16:00+7˚se5117999 0.0 987455
19:00+5˚sse51174100 0.0 990400
22:00+3˚s2384100 0.0 99161
5 december, sat
sat501:00+3˚se338890 0.0 99351
04:00+2˚e119067 0.0 99322
07:00+3˚nne118683 0.0 99422
10:00+3˚ese1192100 1.1 99573
13:00+4˚n1287100 1.4 996337
16:00+4˚wnw2393100 0.1 996258
19:00+4˚wnw1291100 0.1 99750
22:00+3˚wnw2289100 0.0 99789
6 december, sun
sun601:00+3˚wnw1190100 0.0 99737
04:00+2˚wnw2392100 0.0 99756
07:00+2˚n019385 0.0 99822
10:00+3˚e2393100 0.6 998144
13:00+3˚ne2297100 1.9 998111
16:00+3˚ne2396100 0.1 998131
19:00+3˚se1195100 0.1 99822
22:00+2˚ne1295100 0.0 99922
7 december, mon
mon701:00+2˚s1296100 0.0 99922
04:00+1˚sse1295100 0.0 100022
07:00+1˚ssw2394100 0.0 100034
10:00+2˚ssw2490100 0.0 1002117
13:00+4˚ssw3582100 0.0 1003309
16:00+2˚s339066 0.0 100462
19:00+1˚sse358981 0.0 1005118
22:00+1˚s4108669 0.0 1007242